Location: NJAA Observatory
(40.6819°N, 74.8979°W)
Time: 05:11:51
(UTC-04:00)

Transit 2A Rocket - Visible Passes

Search period start: 23 July 2016 00:00
Search period end: 02 August 2016 00:00
Orbit: 584 x 921 km, 66.7° (Epoch: 21 July)

Date Brightness Start Highest point End Pass type
(mag) Time Alt. Az. Time Alt. Az. Time Alt. Az.
23 Jul 7.6 05:09:45 10° SSE 05:13:36 19° ESE 05:17:36 10° ENE visible
24 Jul 8.1 04:31:10 10° ESE 04:31:44 10° E 04:32:18 10° E visible
26 Jul 7.1 04:44:17 10° SSE 04:48:59 27° ESE 04:53:56 10° NE visible
27 Jul 7.6 04:03:43 10° SE 04:07:02 16° ESE 04:10:29 10° ENE visible
28 Jul 5.7 05:00:56 10° SSW 05:06:35 65° ESE 05:12:37 10° NE visible
29 Jul 6.4 04:19:10 10° S 04:24:26 39° ESE 04:30:00 10° NE visible
30 Jul 7.1 03:38:19 11° SSE 03:42:25 23° ESE 03:47:01 10° NE visible
30 Jul 5.6 05:18:53 10° SW 05:24:35 57° NW 05:30:38 10° NNE visible
31 Jul 7.5 02:57:52 10° SE 03:00:30 13° E 03:03:11 10° ENE visible
31 Jul 5.3 04:37:28 16° SSW 04:42:11 90° SE 04:48:21 10° NNE visible
01 Aug 5.8 03:56:37 25° S 03:59:56 55° ESE 04:05:53 10° NE visible
